Temperature
-7 -7 -8 -9 -10 -12 -12 -13 -13 -13 -13 -12 -12 -12 -12 -12 -12 -12 -12 -12 -12 -11 -11 -10 -10 -9 -9 -9 -9 -8 -8 -8 -8 -7 -6 -5 -4 -3 -2 -1 1 3 5
-7 -8 -9 -10 -11 -12 -12 -13 -13 -13 -12 -12 -12 -12 -12 -12 -11 -11 -11 -11 -11 -11 -10 -10 -10 -10 -9 -9 -9 -9 -9 -8 -8 -8 -7 -5 -4 -3 -2 -1 1 2 4
-7 -8 -9 -10 -11 -12 -12 -13 -13 -13 -12 -12 -11 -11 -11 -11 -11 -11 -11 -11 -11 -10 -10 -10 -10 -10 -10 -9 -9 -9 -9 -9 -9 -8 -7 -5 -4 -3 -2 -1 0 2 4
-7 -8 -9 -10 -11 -12 -12 -13 -13 -13 -13 -12 -12 -11 -11 -11 -11 -11 -11 -11 -11 -11 -10 -10 -10 -10 -10 -10 -10 -10 -10 -10 -9 -9 -7 -6 -4 -3 -2 -1 0 2 3
-7 -8 -9 -10 -11 -12 -12 -13 -13 -13 -13 -13 -12 -11 -11 -10 -10 -11 -11 -11 -11 -11 -11 -11 -10 -11 -10 -10 -11 -10 -10 -10 -10 -9 -8 -6 -4 -3 -3 -2 -1 1 3
-7 -8 -9 -9 -10 -11 -12 -13 -13 -13 -13 -13 -12 -12 -11 -10 -10 -11 -12 -12 -12 -12 -12 -11 -11 -11 -11 -11 -11 -11 -11 -10 -10 -10 -9 -8 -6 -5 -4 -2 -2 -0 2
-7 -8 -9 -9 -10 -11 -12 -13 -13 -13 -13 -13 -13 -12 -11 -11 -11 -12 -13 -12 -12 -13 -13 -12 -12 -12 -11 -11 -11 -11 -11 -11 -11 -11 -10 -9 -8 -6 -5 -3 -2 -1 0
-7 -8 -8 -9 -10 -11 -12 -13 -13 -13 -13 -13 -13 -13 -12 -11 -11 -12 -12 -12 -13 -13 -13 -13 -13 -12 -12 -11 -11 -11 -11 -11 -11 -11 -11 -10 -8 -7 -6 -4 -3 -1 -0
-7 -8 -8 -9 -10 -10 -11 -12 -13 -13 -13 -13 -13 -13 -13 -12 -12 -11 -12 -12 -13 -13 -13 -13 -13 -13 -12 -12 -12 -12 -12 -11 -11 -10 -10 -9 -8 -7 -6 -4 -3 -2 -1
-7 -8 -8 -9 -9 -10 -11 -12 -12 -13 -13 -13 -13 -13 -13 -13 -12 -12 -12 -13 -13 -13 -14 -14 -14 -13 -13 -13 -13 -13 -12 -12 -11 -10 -9 -9 -8 -7 -6 -5 -3 -2 -1
-7 -7 -8 -9 -9 -10 -10 -11 -12 -12 -12 -13 -13 -13 -13 -13 -13 -12 -12 -13 -13 -14 -14 -15 -14 -14 -14 -14 -13 -13 -13 -12 -11 -10 -10 -9 -8 -7 -6 -5 -4 -2 -1
-7 -7 -8 -9 -9 -10 -10 -10 -11 -11 -12 -12 -12 -12 -13 -13 -13 -13 -12 -13 -13 -14 -14 -15 -14 -14 -14 -14 -14 -13 -12 -11 -11 -11 -10 -9 -8 -7 -6 -5 -4 -3 -1
-6 -7 -8 -8 -9 -10 -10 -10 -10 -11 -11 -12 -12 -12 -12 -12 -12 -12 -12 -13 -13 -14 -14 -14 -15 -15 -14 -14 -14 -13 -12 -12 -12 -11 -11 -11 -10 -9 -6 -5 -4 -3 -2
-6 -7 -7 -8 -8 -9 -10 -10 -10 -10 -11 -11 -12 -12 -12 -12 -12 -11 -12 -13 -13 -14 -14 -14 -14 -14 -14 -14 -13 -13 -13 -13 -12 -12 -12 -11 -10 -9 -7 -5 -4 -3 -2
-6 -7 -7 -8 -8 -8 -9 -10 -10 -10 -11 -11 -11 -11 -11 -11 -11 -11 -12 -12 -13 -14 -14 -13 -13 -14 -14 -14 -14 -14 -13 -13 -12 -12 -12 -11 -10 -9 -8 -7 -5 -3 -3
-6 -6 -7 -7 -7 -8 -8 -8 -9 -10 -10 -10 -11 -11 -11 -11 -11 -11 -11 -12 -13 -14 -13 -13 -14 -14 -14 -14 -14 -14 -14 -14 -13 -13 -12 -12 -11 -10 -9 -8 -7 -5 -3
-6 -6 -6 -7 -7 -7 -8 -8 -8 -8 -9 -10 -10 -10 -11 -10 -11 -11 -11 -12 -12 -13 -13 -13 -13 -13 -14 -14 -14 -14 -14 -14 -13 -13 -12 -12 -11 -11 -10 -9 -8 -7 -5
-6 -6 -6 -6 -7 -7 -7 -7 -8 -8 -8 -9 -10 -10 -11 -11 -11 -11 -11 -11 -11 -12 -12 -13 -13 -13 -13 -13 -13 -14 -14 -13 -13 -13 -13 -12 -12 -12 -11 -11 -10 -9 -7
-5 -6 -6 -6 -6 -6 -6 -7 -7 -7 -8 -8 -9 -10 -11 -11 -11 -11 -11 -11 -11 -12 -12 -12 -12 -12 -13 -13 -13 -13 -13 -13 -13 -13 -13 -13 -12 -12 -12 -11 -11 -10 -9
-5 -5 -5 -5 -5 -5 -6 -6 -6 -6 -7 -8 -9 -10 -12 -12 -11 -11 -11 -11 -11 -11 -11 -11 -12 -12 -12 -12 -12 -12 -13 -13 -13 -13 -13 -13 -13 -12 -12 -12 -12 -11 -11
-5 -5 -5 -5 -5 -5 -5 -6 -6 -6 -7 -7 -8 -9 -12 -12 -12 -12 -11 -11 -11 -11 -11 -11 -11 -11 -11 -11 -12 -12 -12 -12 -13 -13 -13 -13 -13 -13 -13 -12 -12 -12 -11
-5 -5 -5 -5 -5 -5 -6 -6 -6 -6 -7 -7 -7 -8 -10 -11 -11 -12 -12 -11 -11 -11 -11 -10 -10 -10 -11 -11 -11 -11 -12 -12 -12 -13 -13 -13 -13 -13 -13 -13 -12 -12 -12
-4 -5 -5 -5 -5 -5 -6 -6 -6 -6 -7 -7 -7 -8 -9 -10 -11 -12 -12 -11 -11 -11 -10 -10 -10 -10 -10 -10 -10 -10 -11 -11 -12 -12 -12 -13 -13 -13 -13 -13 -13 -12 -12
-4 -5 -5 -5 -5 -6 -6 -6 -6 -7 -7 -7 -7 -8 -9 -10 -11 -12 -12 -11 -11 -10 -10 -10 -10 -9 -9 -9 -9 -9 -10 -11 -11 -12 -12 -12 -13 -13 -13 -13 -13 -13 -13
-4 -4 -5 -5 -5 -6 -6 -6 -7 -7 -7 -7 -8 -8 -8 -9 -10 -11 -11 -11 -11 -10 -10 -10 -9 -9 -9 -9 -9 -9 -9 -10 -10 -11 -12 -12 -12 -12 -13 -13 -13 -13 -13
-4 -4 -5 -5 -5 -6 -6 -6 -7 -7 -7 -8 -8 -8 -8 -9 -9 -10 -11 -11 -11 -10 -10 -9 -9 -9 -9 -9 -9 -9 -9 -9 -9 -10 -11 -12 -12 -12 -12 -13 -13 -13 -13
Wind_Speed
8 8 9 9 11 12 10 11 13 14 17 16 17 18 19 19 15 10 9 9 9 9 9 9 10 9 7 7 7 7 7 7 11 10 9 10 11 12 12 11 13 10 9
8 8 9 10 10 11 11 12 15 14 16 17 17 17 18 18 14 11 10 9 8 9 9 8 8 8 8 7 7 7 6 7 9 13 12 11 11 10 11 11 10 8 6
7 8 9 10 10 11 12 12 14 14 14 16 15 16 17 16 12 11 11 11 11 11 11 11 10 9 8 8 9 6 7 8 8 10 12 11 9 8 9 9 9 7 6
7 8 9 10 10 11 10 12 12 13 12 13 14 15 15 14 9 9 11 11 12 12 13 13 12 11 10 9 9 8 8 9 8 9 10 10 8 6 5 5 5 4 4
7 8 9 10 10 10 11 11 11 12 13 13 14 15 15 14 7 7 9 11 11 12 12 13 13 18 21 14 12 11 10 9 8 8 8 9 7 6 4 4 4 3 3
7 8 9 10 10 10 11 11 11 12 12 12 13 14 16 15 20 22 14 9 10 11 12 13 13 14 20 19 21 20 17 13 10 7 7 9 9 8 7 7 5 3 1
7 7 8 9 10 11 12 11 11 10 11 12 12 13 14 18 23 22 22 10 9 10 11 12 14 16 20 7 14 19 16 19 17 10 8 8 9 9 9 8 7 5 3
7 7 8 8 9 10 10 11 10 8 9 8 10 12 13 18 25 19 20 10 7 9 10 11 13 13 17 14 10 11 9 10 13 10 7 7 9 10 8 7 8 8 6
7 7 8 8 8 9 9 10 8 8 7 8 9 11 12 16 25 20 16 7 8 9 10 13 16 12 22 24 15 13 12 9 14 18 16 14 15 15 11 6 6 4 3
6 7 7 7 8 8 8 8 6 8 8 10 11 10 11 12 21 23 15 6 9 9 10 13 20 21 23 24 14 14 14 11 12 13 12 13 10 10 13 6 5 3 3
6 6 7 7 7 7 7 6 8 9 10 9 10 11 10 13 18 22 21 6 7 10 11 10 13 25 24 23 20 14 18 15 11 10 9 8 7 6 6 6 4 4 3
6 6 7 7 7 7 8 7 8 8 9 9 8 10 8 10 14 17 20 18 14 9 10 10 13 24 23 23 19 21 23 18 10 10 10 10 10 10 9 8 7 5 7
6 6 7 8 7 7 7 8 8 8 7 9 8 9 9 9 12 18 15 17 19 9 8 16 20 22 20 16 22 24 19 13 11 11 11 10 10 10 9 8 7 6 5
6 6 6 7 7 8 7 6 7 8 9 8 7 8 9 9 10 7 4 6 11 9 7 12 17 19 17 18 18 15 12 13 12 11 11 11 10 10 9 9 7 8 4
6 6 6 6 7 7 8 6 8 7 10 11 7 8 9 10 13 18 12 7 5 6 6 6 7 8 10 11 11 11 12 12 12 12 12 12 12 12 11 10 8 8 6
5 5 5 5 6 6 7 9 13 13 16 17 17 16 12 16 21 19 17 15 15 14 7 4 6 7 8 9 10 10 10 11 12 12 12 12 12 12 12 10 9 9 8
5 6 5 5 5 6 7 8 10 12 16 16 18 20 20 21 21 20 18 15 13 11 4 4 4 5 6 6 7 7 8 9 9 9 10 11 12 12 12 11 11 9 9
5 6 6 5 5 5 6 7 8 9 11 10 14 19 21 21 20 19 19 13 8 7 3 4 4 5 5 4 5 5 6 8 8 9 10 10 11 12 12 12 11 12 10
5 4 5 4 4 5 5 6 6 8 9 9 9 12 18 18 19 19 17 7 8 7 6 5 4 4 4 4 4 4 5 6 7 7 8 9 10 10 11 11 11 16 13
4 6 6 4 4 4 5 5 6 8 8 9 9 10 10 10 9 11 11 9 8 8 7 6 5 5 4 4 4 4 4 5 6 6 7 7 8 8 10 12 11 10 10
4 4 6 4 4 4 4 5 5 6 7 8 8 12 16 9 10 10 10 10 10 10 9 8 6 5 4 4 3 3 4 3 3 4 5 6 7 7 7 8 10 10 10
4 3 3 3 3 4 4 4 5 5 7 7 8 9 16 10 9 9 10 10 10 10 9 8 7 6 5 5 4 4 4 3 2 2 3 4 5 5 6 7 8 9 9
4 4 3 3 3 5 5 4 5 5 6 7 7 8 9 9 10 10 11 11 10 10 13 11 8 6 8 8 8 6 6 5 4 3 1 2 3 4 5 6 7 7 9
5 5 4 3 3 3 4 4 4 5 6 6 6 7 7 8 9 11 11 10 11 13 15 14 12 12 13 11 9 10 12 12 10 8 6 3 2 2 3 4 5 7 7
6 5 5 4 3 3 3 4 4 5 6 7 7 7 8 9 10 10 10 10 12 12 15 17 15 16 17 17 12 11 14 15 14 13 11 6 4 3 2 3 4 5 6
7 6 5 4 4 3 3 3 4 5 5 6 6 7 7 8 9 10 10 10 11 12 14 17 19 22 22 18 16 13 12 15 17 17 15 9 6 5 4 3 4 4 5
Wind_Direction
322 326 328 325 325 325 323 320 321 321 324 325 327 328 330 332 332 325 312 295 289 289 290 292 296 298 305 307 301 295 293 294 293 295 290 289 284 283 288 289 286 279 275
321 327 327 325 325 325 324 323 325 325 328 331 333 334 338 343 346 348 343 340 330 326 327 323 321 331 328 327 322 315 311 302 299 300 299 294 284 279 277 278 279 272 259
326 329 326 325 326 326 325 324 328 329 330 335 338 340 342 344 356 10 11 10 7 2 359 355 345 339 344 342 337 334 320 315 307 302 301 297 288 277 277 276 270 258 257
333 329 327 325 326 324 325 327 331 333 335 338 339 340 341 338 347 16 18 15 10 7 6 0 349 349 350 346 347 347 332 322 316 316 312 307 295 281 274 275 276 244 241
333 334 330 327 325 327 330 331 334 340 342 337 339 341 343 342 350 46 28 12 5 2 359 355 347 356 355 2 356 356 347 336 332 333 330 331 329 335 338 332 298 272 242
331 330 328 331 332 334 333 337 339 340 337 337 339 340 343 344 6 30 34 13 3 359 354 349 344 345 351 0 358 359 357 348 346 345 338 336 334 337 341 341 333 308 295
328 327 328 328 333 335 338 339 338 333 333 335 334 339 340 339 3 30 28 19 1 355 351 349 348 345 346 342 355 356 352 353 350 348 332 331 327 334 336 338 338 332 325
326 326 324 326 327 329 334 335 330 324 329 328 326 333 337 341 355 26 29 16 357 349 345 344 341 336 335 4 357 345 342 347 344 341 335 329 334 331 334 329 312 302 283
324 322 318 318 322 326 332 328 322 322 321 325 325 329 334 336 347 10 31 6 5 348 347 350 346 340 347 4 3 348 346 353 350 350 355 354 356 351 358 351 332 316 293
313 311 310 314 320 317 320 318 317 320 323 333 330 327 324 324 339 354 21 18 8 359 352 349 347 356 359 2 5 353 352 357 347 343 346 348 345 347 4 0 329 318 306
303 308 312 316 314 311 318 314 319 326 327 323 322 321 316 325 335 340 358 21 16 3 356 348 346 360 4 3 7 1 359 2 348 343 343 343 343 344 343 334 307 284 282
305 311 313 312 314 322 319 312 314 317 318 314 312 318 321 319 327 331 349 360 12 12 355 345 354 5 8 7 8 8 7 4 355 355 356 356 353 351 343 329 307 280 255
309 311 310 310 310 310 306 304 311 310 311 311 312 320 322 320 321 328 342 355 2 13 1 1 7 10 10 6 8 12 8 2 0 359 358 354 347 338 337 338 332 322 293
300 303 306 308 310 312 313 308 307 307 308 307 314 319 317 315 313 317 311 337 358 6 6 1 7 8 12 10 9 8 5 4 5 358 354 350 349 353 359 359 355 353 348
293 295 304 310 307 310 314 306 308 301 317 336 329 318 322 320 324 345 356 354 351 3 14 2 359 1 5 5 5 7 6 5 4 359 359 359 1 4 5 4 5 9 14
287 297 300 303 310 315 315 320 327 335 336 342 344 344 333 333 342 352 353 359 357 2 14 354 355 357 359 360 1 0 2 5 2 1 2 3 4 6 7 8 13 17 15
267 283 288 302 309 315 319 325 327 331 337 343 347 347 348 354 0 359 360 1 356 1 9 335 332 337 342 347 349 351 352 353 354 359 4 4 6 8 11 13 15 16 15
265 284 294 291 297 305 313 317 324 329 331 333 340 345 352 359 1 3 7 2 348 350 323 309 310 314 321 330 339 342 344 350 358 1 3 5 7 10 13 14 16 20 19
259 270 277 283 297 304 310 315 324 330 331 332 333 339 349 357 358 1 4 356 337 330 319 304 293 294 301 312 322 332 339 346 355 358 2 3 6 10 13 13 15 22 29
252 285 304 314 320 318 315 318 328 333 334 336 337 332 338 356 354 352 352 346 343 334 323 310 298 284 282 290 304 320 336 346 355 359 358 360 2 9 12 12 15 19 25
235 275 305 320 314 308 305 317 323 328 331 333 332 332 350 359 347 344 345 345 343 339 333 322 306 292 275 264 266 284 305 324 345 353 357 358 1 6 8 15 17 21 27
213 232 259 280 293 299 310 324 321 319 322 327 329 337 350 352 342 342 342 340 337 334 331 325 313 295 274 255 243 242 254 271 291 337 357 2 4 5 8 18 23 25 29
198 217 241 262 283 307 329 321 316 316 319 322 328 340 344 343 341 340 339 337 334 332 333 330 321 309 292 266 240 224 224 227 218 191 164 30 21 17 14 18 22 28 35
191 205 218 237 265 287 300 305 310 315 318 318 326 335 337 335 333 332 333 331 331 331 331 330 325 317 310 299 261 233 227 224 212 194 177 152 108 51 36 30 27 28 34
190 199 205 212 233 265 287 299 308 314 320 324 328 333 331 330 330 330 329 328 329 329 329 329 328 327 323 316 296 252 233 224 210 193 179 161 147 127 90 61 48 44 45
189 195 199 201 212 232 256 279 297 308 312 317 322 322 321 323 324 324 326 327 331 330 329 329 326 327 326 323 316 300 256 227 213 195 177 164 155 153 141 109 93 74 66
Height
1543 1537 1531 1524 1518 1512 1506 1499 1493 1487 1480 1472 1464 1455 1446 1438 1430 1424 1420 1417 1416 1414 1413 1412 1410 1408 1406 1403 1400 1397 1395 1392 1388 1382 1380 1377 1376 1375 1375 1376 1378 1382 1387
1541 1535 1530 1523 1517 1510 1504 1498 1492 1486 1479 1472 1465 1457 1449 1442 1435 1429 1424 1421 1418 1415 1413 1412 1410 1408 1405 1401 1398 1395 1392 1389 1385 1379 1375 1373 1371 1371 1371 1372 1374 1377 1382
1540 1534 1528 1522 1515 1509 1503 1498 1491 1485 1478 1472 1466 1459 1452 1446 1440 1435 1430 1426 1422 1419 1416 1413 1411 1408 1404 1400 1396 1393 1388 1385 1381 1377 1372 1369 1367 1367 1368 1369 1370 1373 1377
1539 1533 1527 1521 1515 1509 1503 1497 1491 1484 1478 1472 1467 1461 1455 1449 1444 1439 1435 1430 1426 1422 1419 1415 1412 1408 1405 1400 1396 1391 1386 1382 1378 1374 1370 1367 1365 1365 1366 1366 1368 1370 1373
1538 1532 1527 1521 1515 1509 1503 1497 1491 1485 1479 1473 1468 1462 1457 1451 1447 1442 1436 1432 1428 1424 1420 1416 1412 1409 1405 1401 1396 1390 1385 1381 1377 1372 1369 1365 1364 1364 1364 1365 1366 1367 1370
1537 1532 1526 1520 1514 1509 1503 1497 1491 1485 1480 1475 1469 1463 1458 1453 1450 1445 1438 1433 1428 1424 1419 1415 1411 1407 1404 1399 1394 1389 1384 1380 1376 1372 1368 1365 1363 1362 1362 1363 1364 1366 1368
1536 1531 1526 1520 1514 1509 1503 1498 1492 1486 1481 1476 1471 1465 1460 1455 1451 1446 1440 1434 1429 1424 1420 1415 1411 1407 1402 1397 1392 1387 1382 1377 1375 1372 1368 1364 1362 1361 1361 1361 1362 1363 1365
1535 1531 1525 1520 1515 1509 1504 1498 1493 1487 1482 1477 1472 1467 1462 1456 1452 1447 1441 1436 1431 1426 1421 1416 1412 1407 1402 1397 1390 1385 1380 1376 1372 1368 1365 1363 1361 1360 1360 1360 1360 1361 1363
1534 1530 1525 1520 1515 1509 1504 1499 1494 1488 1483 1479 1474 1469 1463 1457 1453 1448 1442 1437 1432 1427 1421 1416 1412 1408 1402 1397 1389 1384 1379 1375 1370 1366 1363 1360 1358 1358 1357 1358 1359 1361 1362
1533 1529 1525 1521 1516 1510 1504 1499 1494 1489 1484 1479 1474 1470 1464 1459 1453 1449 1444 1438 1433 1427 1422 1417 1412 1408 1402 1397 1390 1384 1379 1374 1369 1364 1361 1358 1356 1354 1354 1355 1356 1358 1360
1532 1528 1525 1521 1516 1511 1506 1500 1495 1490 1485 1480 1475 1470 1465 1459 1454 1450 1446 1440 1434 1429 1423 1418 1413 1409 1402 1397 1392 1386 1382 1375 1369 1364 1359 1356 1354 1352 1352 1353 1354 1356 1358
1531 1528 1524 1520 1516 1511 1506 1501 1496 1490 1484 1479 1473 1468 1464 1459 1454 1449 1446 1442 1437 1431 1425 1420 1415 1410 1404 1398 1393 1388 1381 1376 1369 1364 1359 1354 1351 1349 1349 1350 1352 1354 1357
1530 1527 1524 1520 1516 1511 1506 1501 1496 1490 1484 1478 1473 1467 1463 1458 1453 1449 1445 1442 1438 1432 1427 1423 1418 1412 1405 1399 1395 1389 1383 1377 1372 1366 1361 1356 1353 1349 1348 1348 1350 1352 1355
1529 1526 1523 1519 1515 1511 1506 1501 1495 1489 1483 1479 1474 1468 1462 1457 1452 1448 1444 1440 1437 1433 1428 1424 1419 1414 1409 1403 1398 1392 1387 1382 1377 1371 1366 1361 1356 1352 1349 1348 1349 1352 1354
1528 1525 1522 1518 1514 1510 1506 1501 1495 1490 1486 1482 1476 1470 1464 1457 1454 1451 1446 1441 1438 1434 1429 1425 1420 1415 1410 1406 1401 1397 1392 1386 1381 1376 1371 1365 1360 1355 1352 1351 1351 1352 1355
1526 1524 1521 1517 1513 1509 1504 1501 1497 1492 1487 1482 1477 1472 1467 1462 1456 1451 1446 1441 1438 1434 1430 1426 1422 1418 1414 1410 1406 1401 1397 1392 1387 1382 1377 1371 1366 1361 1357 1355 1353 1354 1355
1524 1522 1519 1515 1512 1508 1503 1498 1493 1490 1487 1482 1476 1472 1468 1463 1457 1452 1447 1442 1437 1433 1430 1427 1424 1421 1418 1414 1411 1406 1402 1398 1393 1388 1383 1377 1372 1368 1363 1360 1358 1357 1357
1522 1520 1517 1514 1511 1507 1503 1499 1493 1487 1483 1479 1476 1471 1467 1462 1457 1453 1448 1442 1438 1433 1430 1427 1425 1422 1420 1417 1414 1410 1406 1402 1398 1393 1388 1384 1379 1375 1371 1367 1364 1363 1361
1519 1518 1516 1513 1510 1507 1503 1499 1494 1489 1483 1478 1474 1469 1466 1461 1458 1453 1448 1443 1439 1435 1431 1428 1425 1423 1421 1418 1416 1413 1410 1406 1402 1398 1394 1390 1386 1382 1378 1375 1372 1369 1367
1517 1515 1514 1512 1509 1506 1503 1499 1495 1490 1484 1478 1473 1468 1465 1460 1456 1452 1448 1444 1440 1436 1433 1429 1426 1423 1420 1419 1417 1415 1413 1410 1407 1403 1400 1396 1393 1390 1386 1383 1379 1376 1373
1514 1513 1512 1510 1508 1505 1503 1499 1495 1490 1485 1480 1475 1470 1467 1461 1456 1452 1449 1445 1442 1438 1434 1430 1427 1423 1420 1418 1417 1416 1414 1413 1410 1408 1405 1402 1399 1396 1393 1390 1387 1384 1381
1511 1510 1509 1508 1506 1504 1502 1499 1496 1492 1487 1482 1476 1471 1466 1461 1457 1453 1449 1446 1442 1439 1435 1432 1428 1425 1421 1418 1416 1415 1414 1413 1412 1411 1409 1407 1404 1402 1399 1397 1394 1392 1389
1507 1507 1507 1506 1505 1503 1501 1499 1496 1492 1488 1483 1477 1472 1467 1462 1458 1453 1449 1446 1442 1439 1436 1432 1429 1425 1422 1419 1416 1414 1413 1413 1413 1412 1411 1410 1408 1406 1404 1402 1401 1399 1397
1503 1504 1504 1504 1503 1501 1500 1498 1495 1492 1488 1483 1478 1473 1468 1463 1458 1454 1450 1446 1442 1439 1436 1432 1429 1425 1422 1418 1416 1413 1411 1411 1411 1411 1412 1412 1411 1410 1408 1407 1406 1405 1403
1499 1500 1501 1501 1500 1499 1498 1496 1494 1491 1487 1483 1478 1474 1469 1464 1459 1454 1450 1445 1442 1438 1435 1432 1428 1425 1421 1418 1415 1412 1410 1409 1408 1409 1411 1412 1412 1412 1411 1411 1410 1409 1409
1495 1496 1497 1498 1497 1497 1496 1494 1492 1489 1486 1482 1478 1474 1469 1464 1459 1454 1449 1445 1441 1438 1435 1432 1428 1424 1420 1417 1414 1411 1408 1407 1406 1407 1408 1410 1412 1413 1413 1413 1413 1413 1413